Simultaneous Nadir Overpasses (SNOs) Predictions

Prediction of SNOs between LANDSAT-8 and METOP-A Satellite Orbit:

Table of predicted SNOs for the next 14.0 days since TLE Epoch: 5/28/2014
Index Date (LANDSAT-8) Time (LANDSAT-8) Lat,Lon (LANDSAT-8) SZA (LANDSAT-8 ) Date (METOP-A) Time (METOP-A) Lat,Lon (METOP-A) SZA (METOP-A ) Distance(km) Time Diff (sec)
1 05/28/2014 10:24:02 81.09, 63.34 61.79 05/28/2014 10:23:19 81.09, 63.22 61.76 2.03 43
2 05/28/2014 11:13:27 -81.13,-128.37 118.12 05/28/2014 11:13:56 -81.13,-128.20 118.09 2.88 29
3 05/31/2014 05:58:19 81.09, 129.83 61.37 05/31/2014 05:57:41 81.09, 129.78 61.35 0.90 38
4 05/31/2014 06:47:45 -81.11, -62.22 118.60 05/31/2014 06:48:20 -81.11, -62.38 118.60 2.77 35
5 06/03/2014 01:32:36 81.09,-163.79 60.97 06/03/2014 01:32:03 81.09,-163.70 60.98 1.76 33
6 06/03/2014 02:22:02 -81.11, 4.18 118.98 06/03/2014 02:22:42 -81.11, 4.16 118.97 0.56 40
7 06/05/2014 21:06:51 81.10, -97.15 60.67 06/05/2014 21:06:24 81.10, -97.21 60.65 0.99 27
8 06/05/2014 21:56:17 -81.12, 70.83 119.29 06/05/2014 21:57:03 -81.11, 70.67 119.29 2.84 46
9 06/08/2014 16:41:07 81.10, -30.63 60.40 06/08/2014 16:40:46 81.10, -30.76 60.37 2.25 21




NCC Satellite Simultaneous Nadir Overpasses (SNOs) Prediction Service
